Regional Weather Roundup
Issued by NWS

Home | Current Version | Previous Version | Text Only | Print | Product List | Glossary Off
Versions: 1 2 3 4 5 6 7 8 9 10 11 12 13 14 15 16 17 18 19 20 21 22 23 24 25 26 27 28 29 30 31 32 33 34 35 36 37 38 39 40 41 42 43 44 45 46 47 48 49 50

000
ASUS43 KIND 232109
RWRIN

WEATHER ROUNDUP FOR INDIANA
NATIONAL WEATHER SERVICE INDIANAPOLIS IN
500 PM EDT THU MAR 23 2017

NOTE: "FAIR" INDICATES FEW OR NO CLOUDS BELOW 12,000 FEET WITH NO
SIGNIFICANT WEATHER AND/OR OBSTRUCTIONS TO VISIBILITY.

* - STATION DOES NOT REPORT WEATHER SUCH AS PRECIPITATION OR FOG.

+ - STATION NOT QUALITY CONTROLLED BY THE NATIONAL WEATHER SERVICE.
    USE DATA WITH CAUTION...ESPECIALLY DEWPOINT AND RELATIVE
    HUMIDITY OBSERVATIONS.

INZ001>003-010>013-019-020-232200-
NORTHWEST INDIANA

CITY           SKY/WX    TMP DP  RH WIND       PRES   REMARKS
GARY /AIRPORT/ CLOUDY    50  21  32 S16       30.21F
KNOX *+        SUNNY     46   0  14 SE18      30.23F
LA PORTE +     CLOUDY    46  23  40 SE17      30.23F
MICHIGAN CITY+ CLOUDY    45  21  39 SE10      30.22F
MONTICELLO +   CLOUDY    50  25  37 S8        30.22F
RENSSELAER +   CLOUDY    50  25  37 SE14      30.21F
VALPARAISO     CLOUDY    48  25  40 SE13G21   30.21F

$$

LMZ046-743>745-232200-
SOUTHERN LAKE MICHIGAN

STATION/POSITION TIME  TEMP    WIND        PRES    WAVE
                       AIR SEA DIR/SP/G            HT
                 (UTC) (F)     (DEG/KT/KT) (MB)    (FT)
BURNS HARBOR     2040   46     150/ 10/ 16 1023.4F
MICHIGAN CITY    2040   44     130/ 15/ 19   N/A

$$

INZ004-005-014>016-021>024-232200-
NORTH CENTRAL INDIANA

CITY           SKY/WX    TMP DP  RH WIND       PRES   REMARKS
ELKHART        SUNNY     45  18  33 SE14      30.25F
GOSHEN         CLOUDY    47  20  34 SE17      30.26F
LOGANSPORT +   PTSUNNY   50  28  43 SE14      30.25F
PERU/GRISSOM   CLOUDY    52  27  38 SE13G18   30.23F
ROCHESTER +    SUNNY     50  23  34 E10       30.25F
SOUTH BEND     CLOUDY    45  21  38 SE15      30.24F
WARSAW +       CLOUDY    45  23  42 SE10      30.26F

$$

INZ006>009-017-018-025>027-232200-
NORTHEAST INDIANA

CITY           SKY/WX    TMP DP  RH WIND       PRES   REMARKS
ANGOLA *+      SUNNY     45  21  39 SE14      30.28F
AUBURN +       SUNNY     46  19  34 E10G18    30.28F
FORT WAYNE     CLOUDY    47  22  37 SE15      30.28F
HUNTINGTON +   MOSUNNY   46  22  39 SE9       30.27F
KENDALLVILLE + SUNNY     46  22  39 SE12G22   30.27F

$$

INZ028-029-035-036-043>045-051>053-232200-
WEST CENTRAL INDIANA

CITY           SKY/WX    TMP DP  RH WIND       PRES   REMARKS
CRAWFORDSVL +  CLOUDY    50  24  36 S12       30.22F
GREENCASTLE +  CLOUDY    54  27  35 S10       30.23F
LAFAYETTE      CLOUDY    51  24  34 SE8       30.21F
TERRE HAUTE    CLOUDY    53  26  35 S10       30.22F

$$

INZ030>032-037>040-046>048-054>057-064-065-232200-
CENTRAL INDIANA

CITY           SKY/WX    TMP DP  RH WIND       PRES   REMARKS
CP ATTERBURY + CLOUDY    55  23  28 S9        30.26S
COLUMBUS       PTSUNNY   55  27  33 S12       30.26F
FRANKFORT +    CLOUDY    55  28  35 S7        30.25F
GREENWOOD *+   MOSUNNY   56  26  31 S8        30.25F
INDIANAPOLIS   CLOUDY    54  24  31 SE10      30.23F
-EAGLE CREEK   CLOUDY    54  22  28 SE7       30.23F
KOKOMO +       MOSUNNY   51  28  41 SE14      30.25F
MARION +       PTSUNNY   50  26  38 SE15      30.26F
MT COMFORT *+  MOSUNNY   54  25  32 SE10      30.25F
SHELBYVILLE    SUNNY     59  24  26 S14G21    30.24F
ZIONSVILLE +   CLOUDY    52  26  35 S8        30.24F

$$

INZ033-034-041-042-049-050-058-059-232200-
EAST CENTRAL INDIANA

CITY           SKY/WX    TMP DP  RH WIND       PRES   REMARKS
MUNCIE         SUNNY     53  21  28 S9G17     30.25F
RICHMOND +     PTSUNNY   50  27  40 SE10      30.27F

$$

INZ060-061-067>069-081>083-085>088-232200-
SOUTHWEST INDIANA

CITY           SKY/WX    TMP DP  RH WIND       PRES   REMARKS
EVANSVILLE     MOSUNNY   50  38  63 SE9       30.25F
HUNTINGBURG *+ PTSUNNY   51  33  50 SE8       30.25F
WASHINGTON +   CLOUDY    51  28  40 MISG      30.25F

$$

INZ062-063-066-070>080-084-089>092-232200-
SOUTH CENTRAL AND SOUTHEAST INDIANA

CITY           SKY/WX    TMP DP  RH WIND       PRES   REMARKS
BEDFORD +      CLOUDY    57  19  23 S9        30.25F
BLOOMINGTON    CLOUDY    54  23  30 SE13      30.23F
MADISON *+     SUNNY     61  21  21 S10       30.28F
NORTH VERNON + SUNNY     59  18  20 SE10G16   30.27F
SEYMOUR +      CLOUDY    59  30  33 S10       30.26F

$$





USA.gov is the U.S. government's official web portal to all federal, state and local government web resources and services.